Date String (YYYY-MM-DD hh:mm:ss) UTC,Instrument flags,absolute air pressure of the measurement (hPa),sample flow rate (lpm),inlet stack bypass flow (lpm),air temperature of the measurement (°C),ambient temperature measured by the external sensor (°C),aerosol sample conditioner tube jacket temperature (°C),OPC LED temperature (°C),internal box temperature (°C),relative humidity of the measurement (%),span deviation,mass concentration of particles derived from Lorenz-Mie calculation of OPC scattering (μg/m³),mass concentration of particles derived from Lorenz-Mie calculation of OPC scattering (μg/m³),mass concentration of particles derived from Lorenz-Mie calculation of OPC scattering (μg/m³)
DateTimeUTC,F1_M11,P_M11,Q1_M11,Q2_M11,T1_M11,T2_M11,T3_M11,T4_M11,T5_M11,U1_M11,ZSPAN_M11,X0_M11,X2_M11,X1_M11
2023-12-29 01:00:00,SystemResetWarning,0834.5,5.00,000.00,024.2,022.9,000.0,032.6,025.5,8.1,0000.0,0007.27,0002.57,0001.89
2023-12-29 01:01:00,SystemResetWarning,0834.6,5.01,000.00,024.2,022.9,000.0,032.6,025.5,8.1,0000.0,0006.72,0002.56,0001.88
2023-12-29 01:02:00,SystemResetWarning,0834.5,4.99,000.00,024.2,022.9,000.0,032.6,025.5,8.1,0000.0,0006.72,0002.59,0001.89
2023-12-29 01:03:00,SystemResetWarning,0834.9,5.00,000.00,024.2,022.9,000.0,032.6,025.5,8.1,0000.0,0006.84,0002.64,0001.91
2023-12-29 01:04:00,SystemResetWarning,0834.9,5.01,000.00,024.2,022.9,000.0,032.6,025.5,8.1,0000.0,0006.38,0002.65,0001.91
2023-12-29 01:05:00,SystemResetWarning,0835.0,5.00,000.00,024.2,022.9,000.0,032.6,025.5,8.1,0000.0,0007.02,0002.66,0001.92
2023-12-29 01:06:00,SystemResetWarning,0834.9,5.00,000.00,024.2,022.8,000.0,032.6,025.4,8.1,0000.0,0007.63,0002.66,0001.93
2023-12-29 01:07:00,SystemResetWarning,0834.7,5.01,000.00,024.2,022.8,000.0,032.5,025.4,8.1,0000.0,0007.71,0002.71,0001.93
2023-12-29 01:08:00,SystemResetWarning,0834.6,4.99,000.00,024.1,022.8,000.0,032.5,025.4,7.9,0000.0,0007.76,0002.75,0001.95
2023-12-29 01:09:00,SystemResetWarning,0835.1,4.99,000.00,024.1,022.8,000.0,032.5,025.4,7.8,0000.0,0007.64,0002.70,0001.96
2023-12-29 01:10:00,SystemResetWarning,0835.1,5.01,000.00,024.1,022.8,000.0,032.5,025.4,7.8,0000.0,0007.55,0002.67,0001.97
2023-12-29 01:11:00,SystemResetWarning,0835.1,5.01,000.00,024.1,022.8,000.0,032.5,025.4,7.8,0000.0,0007.53,0002.68,0001.96
2023-12-29 01:12:00,SystemResetWarning,0835.0,5.00,000.00,024.1,022.8,000.0,032.5,025.4,7.8,0000.0,0007.51,0002.66,0001.97
2023-12-29 01:13:00,SystemResetWarning,0835.0,4.99,000.00,024.1,022.8,000.0,032.5,025.4,7.9,0000.0,0007.42,0002.62,0001.97
2023-12-29 01:14:00,SystemResetWarning,0835.1,4.99,000.00,024.1,022.8,000.0,032.5,025.4,8.0,0000.0,0006.80,0002.57,0001.98
2023-12-29 01:15:00,SystemResetWarning,0835.0,5.00,000.00,024.1,022.8,000.0,032.5,025.4,8.0,0000.0,0006.51,0002.54,0002.00
2023-12-29 01:16:00,SystemResetWarning,0835.0,5.01,000.00,024.1,022.8,000.0,032.4,025.4,8.0,0000.0,0006.01,0002.57,0001.99
2023-12-29 01:17:00,SystemResetWarning,0835.0,5.01,000.00,024.1,022.7,000.0,032.4,025.4,8.0,0000.0,0004.83,0002.60,0001.97
2023-12-29 01:18:00,SystemResetWarning,0834.8,5.00,000.00,024.1,022.7,000.0,032.4,025.3,8.1,0000.0,0004.06,0002.55,0001.96
2023-12-29 01:19:00,SystemResetWarning,0834.6,4.99,000.00,024.0,022.7,000.0,032.4,025.3,8.1,0000.0,0003.94,0002.50,0001.94
2023-12-29 01:20:00,SystemResetWarning,0834.6,5.00,000.00,024.0,022.7,000.0,032.4,025.3,8.1,0000.0,0005.03,0002.53,0001.93
2023-12-29 01:21:00,SystemResetWarning,0834.6,5.01,000.00,024.0,022.7,000.0,032.4,025.2,8.1,0000.0,0006.22,0002.60,0001.94
2023-12-29 01:22:00,SystemResetWarning,0834.7,5.01,000.00,024.0,022.7,000.0,032.4,025.3,8.1,0000.0,0006.32,0002.65,0001.95
2023-12-29 01:23:00,SystemResetWarning,0834.7,4.99,000.00,024.0,022.7,000.0,032.4,025.3,8.1,0000.0,0006.81,0002.65,0001.95
2023-12-29 01:24:00,SystemResetWarning,0834.8,4.98,000.00,024.0,022.6,000.0,032.4,025.2,8.1,0000.0,0006.94,0002.62,0001.94
2023-12-29 01:25:00,SystemResetWarning,0834.7,5.00,000.00,024.0,022.6,000.0,032.3,025.2,8.1,0000.0,0007.23,0002.67,0001.91
2023-12-29 01:26:00,SystemResetWarning,0834.6,5.01,000.00,023.9,022.6,000.0,032.3,025.2,8.1,0000.0,0007.46,0002.71,0001.91
2023-12-29 01:27:00,SystemResetWarning,0834.7,5.01,000.00,023.9,022.6,000.0,032.3,025.1,8.1,0000.0,0007.37,0002.66,0001.90
2023-12-29 01:28:00,SystemResetWarning,0834.8,5.00,000.00,023.9,022.5,000.0,032.3,025.1,8.1,0000.0,0007.25,0002.61,0001.91
2023-12-29 01:29:00,SystemResetWarning,0834.7,5.00,000.00,023.9,022.5,000.0,032.3,025.1,8.1,0000.0,0007.42,0002.60,0001.91
2023-12-29 01:30:00,SystemResetWarning,0834.7,5.00,000.00,023.8,022.5,000.0,032.3,025.1,8.1,0000.0,0007.53,0002.57,0001.92
2023-12-29 01:31:00,SystemResetWarning,0834.6,4.99,000.00,023.8,022.5,000.0,032.3,025.1,8.1,0000.0,0007.05,0002.55,0001.93
2023-12-29 01:32:00,SystemResetWarning,0834.6,5.00,000.00,023.8,022.5,000.0,032.2,025.1,8.2,0000.0,0006.10,0002.53,0001.91
2023-12-29 01:33:00,SystemResetWarning,0834.5,5.00,000.00,023.8,022.5,000.0,032.2,025.1,8.0,0000.0,0006.05,0002.49,0001.89
2023-12-29 01:34:00,SystemResetWarning,0834.6,4.99,000.00,023.8,022.5,000.0,032.2,025.0,7.9,0000.0,0005.57,0002.49,0001.87
2023-12-29 01:35:00,SystemResetWarning,0834.6,5.00,000.00,023.8,022.4,000.0,032.2,025.1,7.8,0000.0,0005.38,0002.48,0001.88
2023-12-29 01:36:00,SystemResetWarning,0834.5,5.00,000.00,023.8,022.4,000.0,032.2,025.0,7.9,0000.0,0005.23,0002.44,0001.88
2023-12-29 01:37:00,SystemResetWarning,0834.5,5.01,000.00,023.7,022.4,000.0,032.2,025.0,7.9,0000.0,0004.83,0002.35,0001.86
2023-12-29 01:38:00,SystemResetWarning,0834.6,5.00,000.00,023.7,022.4,000.0,032.2,025.0,7.9,0000.0,0004.86,0002.34,0001.84
2023-12-29 01:39:00,SystemResetWarning,0834.7,4.99,000.00,023.7,022.4,000.0,032.2,025.0,7.9,0000.0,0005.08,0002.37,0001.81
2023-12-29 01:40:00,SystemResetWarning,0834.8,5.00,000.00,023.7,022.4,000.0,032.1,025.0,7.8,0000.0,0004.86,0002.36,0001.78
2023-12-29 01:41:00,SystemResetWarning,0834.7,5.00,000.00,023.7,022.3,000.0,032.1,025.0,7.8,0000.0,0005.02,0002.35,0001.74
2023-12-29 01:42:00,SystemResetWarning,0834.6,5.00,000.00,023.7,022.3,000.0,032.1,025.0,7.7,0000.0,0005.43,0002.30,0001.70
2023-12-29 01:43:00,SystemResetWarning,0834.7,5.01,000.00,023.7,022.3,000.0,032.1,025.0,7.8,0000.0,0005.30,0002.24,0001.66
2023-12-29 01:44:00,SystemResetWarning,0834.8,5.00,000.00,023.6,022.3,000.0,032.1,025.0,7.8,0000.0,0005.19,0002.19,0001.62
2023-12-29 01:45:00,SystemResetWarning,0834.6,5.00,000.00,023.6,022.3,000.0,032.1,024.9,7.9,0000.0,0005.15,0002.15,0001.61
2023-12-29 01:46:00,SystemResetWarning,0834.7,4.98,000.00,023.6,022.3,000.0,032.0,024.9,7.9,0000.0,0005.17,0002.15,0001.58
2023-12-29 01:47:00,SystemResetWarning,0834.7,5.02,000.00,023.6,022.3,000.0,032.0,024.9,7.9,0000.0,0005.25,0002.15,0001.54
2023-12-29 01:48:00,SystemResetWarning,0834.7,5.00,000.00,023.6,022.2,000.0,032.0,024.9,7.9,0000.0,0005.28,0002.15,0001.52
2023-12-29 01:49:00,SystemResetWarning,0834.8,5.00,000.00,023.6,022.2,000.0,032.0,024.9,7.9,0000.0,0005.39,0002.12,0001.50
2023-12-29 01:50:00,SystemResetWarning,0834.7,5.00,000.00,023.5,022.2,000.0,032.0,024.9,7.9,0000.0,0005.19,0002.05,0001.48
2023-12-29 01:51:00,SystemResetWarning,0834.7,4.99,000.00,023.5,022.2,000.0,032.0,024.9,8.0,0000.0,0005.28,0002.04,0001.47
2023-12-29 01:52:00,SystemResetWarning,0834.8,4.99,000.00,023.5,022.1,000.0,032.0,024.9,8.0,0000.0,0004.96,0002.03,0001.47
2023-12-29 01:53:00,SystemResetWarning,0834.7,5.01,000.00,023.5,022.1,000.0,031.9,024.8,8.0,0000.0,0004.21,0002.03,0001.48
2023-12-29 01:54:00,SystemResetWarning,0834.6,5.01,000.00,023.5,022.1,000.0,031.9,024.8,8.0,0000.0,0004.17,0002.01,0001.49
2023-12-29 01:55:00,SystemResetWarning,0834.6,4.99,000.00,023.5,022.1,000.0,031.9,024.8,8.0,0000.0,0004.33,0002.10,0001.51
2023-12-29 01:56:00,SystemResetWarning,0834.8,4.99,000.00,023.5,022.1,000.0,031.9,024.8,8.0,0000.0,0004.46,0002.12,0001.52
2023-12-29 01:57:00,SystemResetWarning,0834.8,5.01,000.00,023.4,022.1,000.0,031.9,024.8,8.0,0000.0,0004.84,0002.16,0001.53
2023-12-29 01:58:00,SystemResetWarning,0834.9,5.01,000.00,023.4,022.0,000.0,031.9,024.8,8.0,0000.0,0004.70,0002.14,0001.55
2023-12-29 01:59:00,SystemResetWarning,0834.9,5.00,000.00,023.4,022.0,000.0,031.8,024.7,7.9,0000.0,0004.71,0002.14,0001.56
